699  
SXUS52 KJAX 180013  
OSOJAX  
OTHER SURFACE OBSERVATIONS  
NATIONAL WEATHER SERVICE JACKSONVILLE FL  
800 PM EDT SUN JUN 17 2018  
 
FLZ020>025-030>033-035>038-040-180100-   
..FLORIDA
 
 
 
CITY SKY/WX TMP DP RH WIND PRES REMARKS  
CECIL FIELD CLEAR 84 N/A N/A VRB3 30.10  
HERLONG FIELD NOT AVBL  
FERNANDINA BCH NOT AVBL  
LAKE CITY FAIR 84 70 61 S5 30.10S  
JUNIPER SPGS NOT AVBL  
BUNNELL NOT AVBL  
KEYSTONE HGTS FAIR 82 73 74 CALM 30.12R  

 
 
GAZ132>136-149>154-162>166-180100-   
..GEORGIA
 
 
 
CITY SKY/WX TMP DP RH WIND PRES REMARKS  
JESUP FAIR 82 70 67 CALM 30.10S  
HOMERVILLE FAIR 73 72 94 CALM 30.11F  
SWAINSBORO FAIR 82 73 74 CALM 30.11R  
CORDELE NOT AVBL  
EASTMAN FAIR 85 65 50 SW3 30.12S  

 
 
PLEASE NOTE: THESE OBSERVATIONS ARE NOT QUALITY CONTROLLED AND MAY  
NOT BE AVAILABLE AT ALL TIMES.  

 
 
 
CLICK HERE TO GO TO PREVIOUS BULLETINS.

The Nexlab FL Page
The Nexlab GA Page Main Text Page